Location: Cheb
(50.0670°N, 12.3670°E)
Time: 12:39:05
(UTC+02:00)

ISS - Pass Details

Date: 25 March 2019
Orbit: 408 x 410 km, 51.6° (Epoch: 24 April)

Event Time Altitude Azimuth Distance (km) Brightness Sun altitude
Rises 20:12:54 0° 252° (WSW) 2,331 0.8 -16.6°
Reaches altitude 10° 20:14:59 10° 252° (WSW) 1,471 -0.3 -16.9°
Maximum altitude 20:18:17 87° 163° (SSE) 414 -3.9 -17.4°
Enters shadow 20:19:03 50° 77° (ENE) 529 -3.6 -17.5°
